This demonstration page uses our WeatherBlox Daily Observations layout. Learn more.

Left ArrowRight Arrow

Hourly Observations for November 2, 2016

Temp ( °F °C ) Dew Point ( °F °C ) Humidity (%) Winds ( mph kmh ) Pressure ( in mb ) Visibility ( mi km ) Precip ( " mm )
12:51 am 00:51 Clear 54 12.2 39 3.9 57 57 ENE 7 11 29.89 1012 10 16.0934 N/A
1:51 am 01:51 Clear 55 12.8 39 3.9 55 55 ESE 7 11 29.88 1012 10 16.0934 N/A
2:51 am 02:51 Clear with Light Rain 50 10 38 3.3 63 63 SE 3 6 29.88 1012 10 16.0934 N/A
3:51 am 03:51 Clear 49 9.4 38 3.3 66 66 NNW 5 7 29.89 1012 10 16.0934 N/A
4:51 am 04:51 Clear 50 10 39 3.9 66 66 N N/A 29.89 1012 10 16.0934 N/A
5:51 am 05:51 Clear 48 8.9 38 3.3 68 68 NNW 5 7 29.93 1014 10 16.0934 N/A
6:51 am 06:51 Sunny 48 8.9 39 3.9 71 71 SE 3 6 29.94 1014 10 16.0934 N/A
7:51 am 07:51 Sunny 56 13.3 40 4.4 55 55 N N/A 29.95 1014 10 16.0934 N/A
8:51 am 08:51 Sunny 62 16.7 41 5 46 46 N N/A 29.95 1014 10 16.0934 N/A
9:51 am 09:51 Sunny 70 21.1 40 4.4 34 34 ESE 10 17 29.93 1014 10 16.0934 N/A
10:51 am 10:51 Sunny 71 21.7 41 5 34 34 SSE 7 11 29.94 1014 10 16.0934 N/A
11:51 am 11:51 Sunny 76 24.4 42 5.6 30 30 VRB 3 6 29.92 1013 10 16.0934 N/A
12:51 pm 12:51 Sunny 78 25.6 43 6.1 29 29 undefined N/A 29.89 1012 10 16.0934 N/A
1:51 pm 13:51 Sunny 78 25.6 43 6.1 29 29 VRB 5 7 29.86 1011 10 16.0934 N/A
2:51 pm 14:51 Sunny 81 27.2 42 5.6 25 25 SE 10 17 29.86 1011 10 16.0934 N/A
3:51 pm 15:51 Partly Cloudy with Nearby Thunderstorms 79 26.1 36 2.2 21 21 N N/A 29.86 1011 10 16.0934 N/A
4:11 pm 16:11 Partly Cloudy 78 25.6 35 1.7 21 21 WNW 3 6 29.77 1008 10 16.0934 N/A
4:47 pm 16:47 Partly Cloudy with Nearby Thunderstorms 75 24 34 1 22 22 WSW 5 7 29.8 1009 10 16.0934 N/A
4:51 pm 16:51 Mostly Cloudy with Nearby Thunderstorms 77 25 35 1.7 22 22 WSW 3 6 29.88 1012 10 16.0934 N/A
5:36 pm 17:36 Cloudy with Light Rain 66 18.9 50 10 56 56 ENE 15 24 29.91 1013 10 16.0934 N/A
5:51 pm 17:51 Mostly Cloudy 67 19.4 48 8.9 51 51 NE 16 26 29.93 1014 10 16.0934 N/A
6:25 pm 18:25 Cloudy with Nearby Thunderstorms 69 20.6 44 6.7 41 41 ENE 16 26 29.91 1013 10 16.0934 N/A
6:49 pm 18:49 Mostly Cloudy 66 19 46 8 49 49 ENE 14 22 29.94 1014 10 16.0934 N/A
6:51 pm 18:51 Mostly Cloudy 67 19.4 47 8.3 49 49 NE 15 24 29.99 1016 10 16.0934 N/A
7:51 pm 19:51 Mostly Cloudy 67 19.4 46 7.8 47 47 NE 14 22 29.99 1016 10 16.0934 N/A
8:51 pm 20:51 Cloudy 62 16.7 52 11.1 70 70 ESE 8 13 30.05 1018 10 16.0934 0.01 0.254
9:51 pm 21:51 Cloudy with Light Rain 60 15.6 55 12.8 84 84 N N/A 30.05 1018 10 16.0934 0.02 0.508
10:51 pm 22:51 Cloudy 61 16.1 53 11.7 75 75 NE 3 6 30.05 1018 10 16.0934 N/A
11:51 pm 23:51 Mostly Cloudy 59 15 54 12.2 83 83 W 5 7 30.04 1017 10 16.0934 N/A

Powered by AerisWeather